QPF
0.02 0.02 0.02 0.03 0.02 0.03 0.03 0.03 0.02 0.02 0.01 0.02 0.04 0.05 0.04 0.02 0.02 0.03 0.05 0.08 0.09 0.10 0.11 0.11 0.09 0.07 0.05 0.05 0.06 0.06 0.06 0.05 0.04 0.03 0.02 0.02 0.02 0.02 0.03 0.02 0.02 0.01 0.01
0.02 0.02 0.03 0.03 0.03 0.03 0.04 0.04 0.03 0.04 0.05 0.07 0.09 0.08 0.07 0.03 0.04 0.05 0.05 0.05 0.06 0.08 0.09 0.09 0.08 0.07 0.06 0.04 0.05 0.03 0.03 0.05 0.05 0.05 0.05 0.05 0.04 0.03 0.03 0.02 0.02 0.02 0.02
0.02 0.01 0.02 0.02 0.02 0.04 0.04 0.05 0.04 0.04 0.06 0.07 0.09 0.08 0.07 0.05 0.05 0.06 0.05 0.04 0.05 0.07 0.09 0.09 0.10 0.10 0.10 0.07 0.07 0.05 0.04 0.04 0.04 0.04 0.04 0.05 0.06 0.06 0.05 0.04 0.04 0.04 0.03
0.02 0.02 0.02 0.02 0.03 0.03 0.04 0.04 0.05 0.04 0.04 0.05 0.06 0.06 0.05 0.06 0.07 0.07 0.06 0.05 0.06 0.05 0.06 0.08 0.10 0.12 0.11 0.12 0.12 0.09 0.07 0.06 0.04 0.04 0.05 0.06 0.06 0.06 0.07 0.07 0.08 0.07 0.05
0.04 0.03 0.02 0.02 0.02 0.02 0.03 0.04 0.04 0.04 0.04 0.05 0.05 0.04 0.04 0.05 0.07 0.07 0.06 0.08 0.08 0.07 0.06 0.04 0.07 0.09 0.12 0.14 0.15 0.14 0.12 0.09 0.09 0.11 0.11 0.09 0.06 0.05 0.05 0.05 0.06 0.06 0.06
0.05 0.04 0.03 0.03 0.03 0.03 0.02 0.03 0.04 0.04 0.04 0.05 0.03 0.03 0.03 0.04 0.05 0.05 0.06 0.12 0.11 0.10 0.08 0.06 0.06 0.06 0.10 0.13 0.13 0.12 0.14 0.17 0.18 0.14 0.11 0.09 0.07 0.05 0.04 0.04 0.05 0.06 0.06
0.05 0.05 0.05 0.04 0.04 0.04 0.04 0.04 0.04 0.04 0.04 0.04 0.03 0.03 0.03 0.02 0.02 0.03 0.04 0.07 0.06 0.06 0.07 0.08 0.10 0.07 0.07 0.12 0.13 0.13 0.17 0.17 0.13 0.12 0.10 0.08 0.07 0.06 0.06 0.05 0.05 0.05 0.06
0.06 0.06 0.05 0.04 0.05 0.05 0.05 0.05 0.04 0.04 0.04 0.05 0.05 0.04 0.03 0.02 0.02 0.03 0.04 0.04 0.04 0.04 0.03 0.04 0.07 0.09 0.08 0.11 0.12 0.11 0.14 0.16 0.16 0.15 0.13 0.12 0.12 0.12 0.09 0.08 0.07 0.06 0.06
0.05 0.06 0.06 0.05 0.04 0.04 0.05 0.05 0.04 0.05 0.05 0.06 0.07 0.05 0.02 0.02 0.02 0.03 0.03 0.02 0.02 0.03 0.03 0.03 0.06 0.07 0.07 0.07 0.10 0.12 0.14 0.16 0.16 0.17 0.17 0.19 0.21 0.19 0.14 0.12 0.12 0.11 0.11
0.06 0.06 0.06 0.05 0.05 0.05 0.06 0.06 0.06 0.06 0.06 0.07 0.07 0.05 0.03 0.03 0.03 0.03 0.03 0.03 0.03 0.04 0.03 0.04 0.06 0.04 0.04 0.08 0.13 0.13 0.11 0.09 0.09 0.12 0.15 0.18 0.20 0.18 0.15 0.15 0.14 0.13 0.12
0.06 0.06 0.07 0.08 0.07 0.06 0.06 0.08 0.07 0.06 0.07 0.07 0.07 0.06 0.05 0.05 0.04 0.03 0.03 0.02 0.03 0.03 0.03 0.03 0.03 0.03 0.02 0.04 0.09 0.14 0.12 0.09 0.08 0.07 0.08 0.11 0.14 0.14 0.14 0.14 0.13 0.12 0.12
0.06 0.05 0.06 0.07 0.07 0.06 0.06 0.07 0.07 0.07 0.07 0.07 0.07 0.07 0.06 0.07 0.07 0.05 0.03 0.03 0.03 0.03 0.03 0.03 0.02 0.02 0.02 0.03 0.04 0.06 0.06 0.08 0.08 0.08 0.06 0.06 0.08 0.09 0.10 0.10 0.11 0.11 0.10
0.05 0.05 0.05 0.05 0.06 0.06 0.05 0.04 0.04 0.05 0.06 0.06 0.06 0.06 0.07 0.07 0.07 0.07 0.06 0.05 0.03 0.03 0.04 0.04 0.03 0.03 0.03 0.03 0.03 0.02 0.03 0.05 0.07 0.08 0.07 0.06 0.06 0.06 0.06 0.06 0.07 0.08 0.09
0.03 0.04 0.06 0.06 0.06 0.06 0.05 0.04 0.03 0.05 0.06 0.07 0.07 0.08 0.08 0.07 0.08 0.08 0.08 0.06 0.05 0.04 0.06 0.05 0.03 0.03 0.02 0.02 0.03 0.03 0.03 0.04 0.05 0.06 0.07 0.07 0.06 0.05 0.05 0.05 0.04 0.04 0.05
0.04 0.05 0.06 0.07 0.06 0.05 0.05 0.05 0.06 0.07 0.06 0.06 0.07 0.10 0.09 0.07 0.08 0.09 0.09 0.08 0.08 0.06 0.07 0.07 0.06 0.05 0.02 0.01 0.02 0.02 0.02 0.03 0.04 0.05 0.04 0.04 0.04 0.04 0.04 0.03 0.03 0.03 0.03
0.04 0.05 0.05 0.05 0.04 0.03 0.03 0.03 0.03 0.03 0.03 0.04 0.04 0.05 0.05 0.06 0.06 0.06 0.06 0.08 0.09 0.08 0.07 0.07 0.06 0.04 0.03 0.03 0.03 0.03 0.02 0.02 0.02 0.03 0.02 0.03 0.03 0.03 0.03 0.03 0.03 0.03 0.03
0.05 0.04 0.04 0.03 0.03 0.02 0.02 0.02 0.02 0.03 0.03 0.03 0.03 0.02 0.03 0.05 0.05 0.05 0.05 0.06 0.07 0.07 0.06 0.05 0.05 0.06 0.06 0.05 0.04 0.03 0.02 0.02 0.03 0.03 0.03 0.03 0.04 0.04 0.04 0.04 0.03 0.03 0.02
0.05 0.05 0.05 0.04 0.03 0.02 0.02 0.03 0.03 0.02 0.02 0.02 0.02 0.02 0.02 0.03 0.03 0.04 0.04 0.05 0.05 0.05 0.06 0.05 0.05 0.05 0.06 0.06 0.06 0.06 0.05 0.05 0.04 0.04 0.04 0.04 0.04 0.04 0.05 0.04 0.04 0.04 0.04
0.04 0.06 0.04 0.03 0.03 0.02 0.02 0.02 0.02 0.02 0.03 0.03 0.03 0.03 0.03 0.03 0.02 0.03 0.04 0.05 0.06 0.06 0.07 0.07 0.07 0.08 0.09 0.09 0.09 0.10 0.09 0.08 0.07 0.06 0.05 0.05 0.05 0.06 0.05 0.05 0.04 0.04 0.04
0.04 0.07 0.04 0.02 0.01 0.02 0.02 0.02 0.02 0.03 0.03 0.03 0.03 0.03 0.02 0.02 0.02 0.02 0.04 0.05 0.05 0.07 0.08 0.09 0.09 0.09 0.08 0.08 0.10 0.11 0.10 0.09 0.08 0.06 0.06 0.06 0.07 0.07 0.07 0.07 0.06 0.07 0.07
0.03 0.03 0.02 0.01 0.01 0.01 0.01 0.02 0.02 0.02 0.03 0.04 0.03 0.02 0.01 0.01 0.02 0.02 0.03 0.04 0.04 0.05 0.07 0.09 0.10 0.10 0.08 0.08 0.10 0.13 0.12 0.10 0.08 0.07 0.06 0.06 0.07 0.07 0.07 0.07 0.07 0.07 0.07
0.03 0.02 0.01 0.01 0.01 0.02 0.02 0.02 0.02 0.03 0.02 0.02 0.01 0.01 0.01 0.01 0.01 0.01 0.01 0.01 0.02 0.03 0.03 0.04 0.07 0.08 0.08 0.08 0.09 0.11 0.13 0.10 0.09 0.08 0.08 0.09 0.09 0.09 0.09 0.07 0.08 0.07 0.07
0.05 0.03 0.02 0.02 0.02 0.03 0.03 0.02 0.01 0.01 0.01 0.01 0.01 0.01 0.01 0.01 0.01 0.01 0.01 0.01 0.01 0.02 0.02 0.02 0.03 0.06 0.06 0.06 0.07 0.07 0.06 0.06 0.06 0.07 0.06 0.07 0.09 0.10 0.10 0.10 0.10 0.09 0.08
0.07 0.04 0.02 0.02 0.02 0.03 0.02 0.02 0.01 0.02 0.02 0.01 0.01 0.01 0.01 0.02 0.03 0.02 0.01 0.01 0.01 0.02 0.02 0.01 0.02 0.03 0.04 0.04 0.03 0.03 0.03 0.03 0.03 0.03 0.03 0.04 0.05 0.05 0.05 0.05 0.06 0.05 0.05
0.03 0.02 0.02 0.02 0.02 0.02 0.02 0.02 0.02 0.02 0.01 0.01 0.01 0.01 0.01 0.02 0.03 0.04 0.03 0.03 0.03 0.02 0.02 0.02 0.02 0.02 0.03 0.03 0.03 0.02 0.02 0.02 0.02 0.02 0.02 0.03 0.03 0.03 0.02 0.02 0.02 0.03 0.03
0.02 0.02 0.03 0.03 0.03 0.03 0.04 0.03 0.02 0.01 0.01 0.01 0.01 0.01 0.02 0.02 0.03 0.04 0.05 0.06 0.05 0.05 0.04 0.04 0.04 0.04 0.03 0.02 0.02 0.02 0.02 0.02 0.03 0.02 0.02 0.02 0.02 0.01 0.01 0.01 0.01 0.01 0.01
MSLP
1018.37 1018.32 1018.16 1017.94 1017.70 1017.49 1017.35 1017.29 1017.29 1017.34 1017.38 1017.41 1017.40 1017.35 1017.30 1017.27 1017.29 1017.38 1017.54 1017.76 1018.01 1018.27 1018.50 1018.70 1018.86 1018.99 1019.12 1019.26 1019.42 1019.59 1019.78 1019.97 1020.13 1020.27 1020.38 1020.48 1020.57 1020.67 1020.79 1020.93 1021.09 1021.24 1021.39
1018.46 1018.39 1018.22 1017.98 1017.73 1017.51 1017.34 1017.27 1017.26 1017.29 1017.35 1017.38 1017.38 1017.35 1017.29 1017.24 1017.21 1017.24 1017.34 1017.49 1017.68 1017.90 1018.12 1018.34 1018.53 1018.72 1018.89 1019.07 1019.26 1019.45 1019.64 1019.82 1019.98 1020.12 1020.25 1020.37 1020.48 1020.61 1020.76 1020.91 1021.07 1021.23 1021.37
1018.44 1018.37 1018.21 1017.98 1017.74 1017.53 1017.38 1017.29 1017.28 1017.31 1017.36 1017.40 1017.41 1017.38 1017.31 1017.24 1017.18 1017.15 1017.18 1017.27 1017.40 1017.57 1017.77 1017.98 1018.19 1018.40 1018.60 1018.80 1018.99 1019.18 1019.36 1019.52 1019.67 1019.80 1019.93 1020.07 1020.21 1020.36 1020.54 1020.72 1020.91 1021.08 1021.22
1018.34 1018.28 1018.14 1017.96 1017.76 1017.58 1017.44 1017.37 1017.35 1017.38 1017.42 1017.46 1017.47 1017.44 1017.38 1017.30 1017.22 1017.16 1017.14 1017.17 1017.25 1017.38 1017.54 1017.72 1017.92 1018.12 1018.32 1018.50 1018.67 1018.82 1018.96 1019.08 1019.19 1019.30 1019.41 1019.55 1019.71 1019.89 1020.09 1020.31 1020.52 1020.71 1020.88
1018.21 1018.16 1018.06 1017.93 1017.78 1017.65 1017.54 1017.48 1017.46 1017.47 1017.50 1017.53 1017.54 1017.53 1017.48 1017.42 1017.36 1017.30 1017.27 1017.28 1017.33 1017.41 1017.53 1017.68 1017.84 1017.99 1018.14 1018.27 1018.37 1018.45 1018.50 1018.54 1018.59 1018.65 1018.73 1018.85 1019.01 1019.21 1019.43 1019.68 1019.91 1020.14 1020.32
1018.11 1018.07 1018.01 1017.93 1017.84 1017.75 1017.68 1017.62 1017.59 1017.58 1017.59 1017.60 1017.62 1017.63 1017.63 1017.62 1017.61 1017.60 1017.60 1017.62 1017.66 1017.73 1017.81 1017.91 1018.01 1018.09 1018.15 1018.18 1018.18 1018.15 1018.09 1018.03 1017.98 1017.96 1017.99 1018.08 1018.22 1018.42 1018.66 1018.91 1019.17 1019.41 1019.63
1018.10 1018.07 1018.03 1018.00 1017.96 1017.91 1017.85 1017.79 1017.74 1017.70 1017.67 1017.67 1017.70 1017.74 1017.80 1017.88 1017.95 1018.03 1018.10 1018.18 1018.25 1018.32 1018.38 1018.43 1018.46 1018.46 1018.42 1018.33 1018.20 1018.04 1017.85 1017.66 1017.51 1017.40 1017.35 1017.39 1017.50 1017.68 1017.91 1018.17 1018.44 1018.69 1018.91
1018.24 1018.20 1018.18 1018.17 1018.16 1018.13 1018.08 1018.00 1017.91 1017.82 1017.76 1017.73 1017.77 1017.85 1017.98 1018.15 1018.34 1018.53 1018.72 1018.88 1019.01 1019.11 1019.18 1019.20 1019.17 1019.09 1018.95 1018.74 1018.48 1018.19 1017.87 1017.56 1017.29 1017.09 1016.97 1016.95 1017.02 1017.17 1017.38 1017.62 1017.88 1018.12 1018.34
1018.52 1018.47 1018.46 1018.47 1018.47 1018.44 1018.37 1018.25 1018.11 1017.97 1017.86 1017.80 1017.84 1017.95 1018.15 1018.41 1018.71 1019.03 1019.33 1019.60 1019.82 1019.98 1020.08 1020.10 1020.05 1019.91 1019.69 1019.40 1019.04 1018.64 1018.21 1017.80 1017.44 1017.16 1016.97 1016.89 1016.91 1017.02 1017.20 1017.41 1017.64 1017.86 1018.07
1018.91 1018.86 1018.85 1018.86 1018.87 1018.83 1018.73 1018.57 1018.37 1018.16 1017.99 1017.90 1017.91 1018.03 1018.27 1018.60 1018.99 1019.42 1019.83 1020.21 1020.53 1020.77 1020.93 1020.99 1020.96 1020.82 1020.58 1020.24 1019.83 1019.36 1018.88 1018.40 1017.97 1017.64 1017.40 1017.27 1017.26 1017.33 1017.47 1017.64 1017.83 1018.02 1018.18
1019.35 1019.30 1019.30 1019.32 1019.32 1019.27 1019.15 1018.95 1018.69 1018.42 1018.19 1018.04 1018.00 1018.10 1018.34 1018.70 1019.14 1019.63 1020.13 1020.60 1021.02 1021.36 1021.60 1021.75 1021.78 1021.69 1021.48 1021.17 1020.77 1020.30 1019.80 1019.30 1018.85 1018.48 1018.22 1018.06 1018.02 1018.05 1018.16 1018.29 1018.44 1018.58 1018.69
1019.75 1019.72 1019.74 1019.78 1019.79 1019.73 1019.59 1019.36 1019.07 1018.75 1018.45 1018.23 1018.14 1018.18 1018.38 1018.71 1019.15 1019.66 1020.20 1020.74 1021.24 1021.67 1022.03 1022.28 1022.42 1022.44 1022.33 1022.10 1021.77 1021.34 1020.88 1020.41 1019.97 1019.60 1019.33 1019.16 1019.09 1019.10 1019.17 1019.27 1019.38 1019.47 1019.53
1020.05 1020.07 1020.12 1020.18 1020.21 1020.17 1020.04 1019.80 1019.49 1019.13 1018.78 1018.50 1018.33 1018.29 1018.41 1018.66 1019.05 1019.53 1020.08 1020.64 1021.21 1021.73 1022.21 1022.59 1022.88 1023.04 1023.07 1022.97 1022.74 1022.42 1022.02 1021.60 1021.20 1020.86 1020.59 1020.42 1020.34 1020.34 1020.38 1020.45 1020.52 1020.57 1020.59
1020.23 1020.29 1020.39 1020.49 1020.56 1020.55 1020.45 1020.23 1019.92 1019.56 1019.18 1018.84 1018.59 1018.47 1018.48 1018.64 1018.93 1019.34 1019.84 1020.41 1021.01 1021.61 1022.20 1022.72 1023.17 1023.49 1023.68 1023.73 1023.65 1023.43 1023.14 1022.79 1022.44 1022.12 1021.88 1021.71 1021.63 1021.61 1021.64 1021.69 1021.73 1021.74 1021.72
1020.31 1020.42 1020.56 1020.70 1020.81 1020.85 1020.79 1020.62 1020.35 1020.01 1019.62 1019.26 1018.95 1018.73 1018.64 1018.69 1018.87 1019.19 1019.63 1020.17 1020.78 1021.44 1022.12 1022.77 1023.36 1023.84 1024.20 1024.40 1024.45 1024.36 1024.15 1023.88 1023.58 1023.30 1023.08 1022.92 1022.84 1022.82 1022.84 1022.87 1022.89 1022.88 1022.83
1020.34 1020.48 1020.65 1020.83 1020.98 1021.07 1021.07 1020.96 1020.75 1020.45 1020.10 1019.73 1019.39 1019.12 1018.95 1018.89 1018.97 1019.19 1019.55 1020.05 1020.65 1021.34 1022.08 1022.83 1023.54 1024.16 1024.65 1024.98 1025.15 1025.16 1025.04 1024.83 1024.58 1024.33 1024.12 1023.98 1023.90 1023.88 1023.90 1023.92 1023.94 1023.91 1023.85
1020.39 1020.54 1020.73 1020.92 1021.10 1021.23 1021.29 1021.25 1021.11 1020.88 1020.58 1020.25 1019.92 1019.62 1019.40 1019.27 1019.27 1019.41 1019.70 1020.14 1020.72 1021.41 1022.18 1022.98 1023.77 1024.47 1025.05 1025.47 1025.73 1025.81 1025.77 1025.61 1025.40 1025.19 1025.00 1024.87 1024.80 1024.79 1024.80 1024.83 1024.84 1024.82 1024.74
1020.51 1020.66 1020.83 1021.03 1021.22 1021.37 1021.47 1021.49 1021.42 1021.27 1021.05 1020.78 1020.49 1020.21 1019.97 1019.82 1019.77 1019.85 1020.09 1020.47 1021.01 1021.68 1022.44 1023.25 1024.06 1024.79 1025.42 1025.89 1026.19 1026.33 1026.33 1026.22 1026.05 1025.87 1025.71 1025.60 1025.55 1025.54 1025.57 1025.60 1025.62 1025.59 1025.52
1020.72 1020.84 1020.99 1021.17 1021.35 1021.51 1021.63 1021.70 1021.70 1021.62 1021.48 1021.28 1021.06 1020.83 1020.63 1020.48 1020.41 1020.47 1020.66 1021.00 1021.48 1022.10 1022.82 1023.60 1024.38 1025.10 1025.72 1026.20 1026.52 1026.69 1026.72 1026.66 1026.53 1026.39 1026.27 1026.19 1026.16 1026.17 1026.21 1026.25 1026.27 1026.25 1026.19
1020.98 1021.09 1021.21 1021.35 1021.51 1021.66 1021.78 1021.88 1021.92 1021.91 1021.85 1021.74 1021.59 1021.43 1021.29 1021.17 1021.12 1021.17 1021.34 1021.63 1022.06 1022.61 1023.26 1023.96 1024.67 1025.33 1025.92 1026.37 1026.69 1026.88 1026.94 1026.92 1026.84 1026.75 1026.68 1026.64 1026.64 1026.68 1026.73 1026.78 1026.80 1026.78 1026.72
1021.25 1021.34 1021.44 1021.56 1021.68 1021.81 1021.93 1022.03 1022.11 1022.14 1022.15 1022.11 1022.05 1021.97 1021.89 1021.83 1021.82 1021.87 1022.02 1022.27 1022.64 1023.10 1023.66 1024.26 1024.88 1025.46 1025.97 1026.39 1026.69 1026.88 1026.97 1027.00 1026.98 1026.95 1026.94 1026.95 1026.99 1027.05 1027.11 1027.16 1027.18 1027.17 1027.11
1021.44 1021.54 1021.64 1021.74 1021.85 1021.96 1022.07 1022.16 1022.25 1022.32 1022.36 1022.39 1022.40 1022.39 1022.38 1022.38 1022.41 1022.48 1022.62 1022.83 1023.13 1023.51 1023.96 1024.45 1024.96 1025.44 1025.88 1026.24 1026.52 1026.72 1026.84 1026.92 1026.96 1027.00 1027.05 1027.11 1027.18 1027.27 1027.34 1027.39 1027.40 1027.38 1027.31
1021.49 1021.64 1021.76 1021.87 1021.97 1022.07 1022.16 1022.26 1022.34 1022.42 1022.51 1022.58 1022.64 1022.70 1022.75 1022.80 1022.86 1022.95 1023.08 1023.26 1023.50 1023.79 1024.14 1024.52 1024.92 1025.31 1025.66 1025.97 1026.23 1026.43 1026.58 1026.70 1026.80 1026.90 1027.00 1027.11 1027.22 1027.32 1027.39 1027.44 1027.44 1027.40 1027.33
1021.39 1021.59 1021.76 1021.90 1022.02 1022.12 1022.22 1022.30 1022.39 1022.48 1022.58 1022.68 1022.78 1022.89 1022.98 1023.08 1023.17 1023.28 1023.40 1023.54 1023.73 1023.95 1024.20 1024.48 1024.78 1025.08 1025.37 1025.63 1025.86 1026.06 1026.23 1026.39 1026.54 1026.69 1026.83 1026.98 1027.11 1027.21 1027.28 1027.31 1027.30 1027.25 1027.17
1021.12 1021.40 1021.63 1021.83 1021.98 1022.10 1022.20 1022.29 1022.38 1022.47 1022.59 1022.71 1022.84 1022.98 1023.11 1023.24 1023.36 1023.47 1023.59 1023.71 1023.85 1024.01 1024.19 1024.39 1024.61 1024.84 1025.06 1025.29 1025.49 1025.69 1025.87 1026.05 1026.23 1026.41 1026.58 1026.74 1026.88 1026.99 1027.05 1027.07 1027.04 1026.97 1026.88
1020.77 1021.11 1021.41 1021.65 1021.84 1021.99 1022.11 1022.21 1022.31 1022.41 1022.54 1022.68 1022.83 1022.99 1023.16 1023.31 1023.45 1023.57 1023.68 1023.79 1023.90 1024.01 1024.14 1024.29 1024.45 1024.62 1024.81 1024.99 1025.18 1025.36 1025.55 1025.73 1025.92 1026.11 1026.29 1026.45 1026.59 1026.69 1026.75 1026.76 1026.72 1026.64 1026.55
Thickness
5746 5746 5746 5746 5746 5746 5745 5745 5745 5744 5744 5743 5743 5743 5742 5741 5740 5739 5738 5738 5737 5736 5735 5734 5732 5731 5729 5728 5727 5726 5724 5723 5722 5720 5719 5718 5716 5715 5714 5713 5712 5710 5709
5747 5747 5746 5746 5746 5746 5746 5745 5744 5744 5743 5743 5743 5742 5742 5741 5739 5739 5738 5738 5737 5736 5735 5734 5732 5731 5729 5728 5727 5725 5724 5723 5722 5720 5719 5718 5716 5715 5714 5712 5711 5710 5708
5748 5747 5747 5747 5746 5746 5746 5745 5744 5744 5743 5743 5742 5742 5741 5740 5739 5738 5738 5737 5736 5735 5735 5734 5732 5731 5729 5728 5727 5725 5724 5723 5721 5720 5719 5717 5716 5714 5713 5711 5710 5709 5707
5749 5748 5748 5747 5747 5747 5746 5745 5744 5743 5742 5741 5740 5741 5740 5739 5739 5738 5737 5736 5735 5734 5733 5733 5732 5731 5730 5728 5727 5726 5724 5723 5721 5720 5718 5717 5715 5714 5712 5711 5709 5708 5706
5751 5750 5749 5748 5748 5747 5746 5745 5743 5742 5741 5740 5739 5739 5739 5738 5738 5737 5736 5735 5734 5733 5732 5732 5731 5730 5729 5728 5727 5726 5725 5723 5722 5720 5718 5717 5715 5714 5712 5710 5709 5707 5706
5751 5751 5749 5749 5748 5747 5745 5744 5743 5742 5740 5739 5739 5737 5737 5736 5736 5735 5735 5734 5733 5732 5731 5730 5729 5729 5728 5728 5727 5726 5725 5723 5721 5720 5718 5717 5715 5713 5711 5709 5707 5706 5705
5752 5751 5750 5749 5748 5746 5745 5744 5742 5740 5738 5738 5735 5732 5732 5734 5733 5733 5732 5731 5731 5730 5729 5728 5727 5727 5727 5727 5726 5725 5724 5723 5721 5719 5718 5716 5714 5712 5710 5708 5706 5705 5704
5753 5752 5750 5749 5748 5747 5745 5743 5741 5738 5737 5737 5733 5728 5724 5725 5728 5730 5729 5728 5728 5727 5726 5725 5725 5724 5724 5724 5724 5723 5722 5721 5720 5718 5716 5714 5712 5710 5708 5706 5705 5703 5702
5753 5752 5751 5749 5748 5747 5745 5743 5742 5739 5736 5735 5735 5730 5723 5719 5720 5723 5724 5724 5724 5723 5723 5722 5722 5721 5721 5721 5721 5721 5720 5719 5718 5717 5715 5713 5710 5708 5706 5704 5702 5701 5699
5752 5751 5750 5749 5748 5746 5745 5744 5743 5740 5737 5734 5733 5733 5731 5727 5719 5716 5717 5719 5719 5718 5718 5718 5718 5717 5717 5717 5718 5718 5717 5716 5715 5714 5712 5710 5708 5705 5703 5701 5699 5697 5696
5750 5749 5748 5747 5746 5745 5744 5743 5742 5740 5738 5735 5733 5731 5728 5726 5724 5717 5712 5712 5713 5713 5714 5713 5713 5713 5713 5713 5713 5714 5713 5712 5711 5709 5708 5706 5703 5701 5699 5697 5695 5694 5692
5747 5747 5746 5745 5744 5743 5742 5741 5740 5739 5737 5735 5733 5731 5728 5726 5723 5719 5713 5710 5708 5708 5709 5709 5709 5709 5708 5708 5708 5709 5708 5707 5706 5704 5702 5700 5698 5696 5694 5692 5690 5688 5687
5744 5744 5744 5743 5742 5741 5740 5739 5738 5736 5735 5734 5732 5731 5730 5728 5726 5722 5716 5710 5706 5705 5705 5704 5704 5704 5703 5703 5703 5703 5702 5701 5700 5698 5696 5694 5692 5690 5688 5686 5684 5682 5680
5744 5743 5742 5741 5740 5739 5738 5737 5735 5734 5733 5732 5731 5730 5728 5726 5725 5722 5717 5712 5705 5702 5700 5700 5700 5699 5699 5698 5698 5697 5696 5695 5694 5692 5690 5688 5686 5683 5681 5679 5677 5675 5673
5743 5741 5740 5739 5738 5736 5735 5734 5732 5731 5730 5729 5728 5728 5726 5725 5723 5721 5718 5715 5709 5701 5698 5697 5696 5695 5694 5693 5692 5692 5690 5689 5687 5685 5683 5681 5679 5677 5674 5672 5670 5668 5666
5741 5739 5737 5736 5735 5733 5732 5731 5729 5728 5728 5726 5726 5725 5723 5722 5721 5719 5717 5714 5712 5706 5698 5696 5693 5691 5690 5688 5686 5685 5683 5682 5680 5678 5676 5673 5671 5669 5667 5664 5662 5660 5658
5738 5736 5734 5732 5731 5730 5729 5728 5726 5725 5724 5723 5722 5721 5720 5719 5717 5716 5714 5712 5709 5705 5698 5692 5689 5686 5684 5682 5680 5679 5676 5674 5672 5670 5667 5665 5663 5661 5658 5655 5653 5651 5649
5735 5733 5731 5729 5728 5726 5725 5724 5722 5721 5720 5718 5717 5716 5715 5714 5712 5711 5709 5707 5704 5701 5697 5689 5684 5681 5679 5676 5674 5672 5669 5666 5664 5661 5659 5656 5654 5652 5649 5646 5644 5642 5639
5731 5729 5728 5726 5724 5722 5721 5719 5718 5716 5715 5713 5712 5711 5709 5708 5707 5705 5703 5701 5698 5695 5691 5685 5679 5675 5673 5670 5667 5665 5661 5658 5656 5653 5650 5647 5645 5643 5639 5637 5634 5632 5630
5728 5725 5723 5721 5719 5717 5716 5714 5713 5711 5709 5708 5706 5705 5704 5703 5701 5699 5697 5694 5691 5687 5683 5679 5674 5669 5666 5662 5660 5657 5653 5649 5647 5644 5641 5638 5635 5632 5630 5627 5624 5622 5619
5724 5721 5719 5716 5714 5713 5711 5709 5707 5705 5703 5701 5700 5699 5697 5697 5696 5694 5691 5687 5684 5680 5676 5672 5667 5663 5658 5655 5652 5649 5645 5641 5638 5635 5632 5629 5626 5623 5620 5617 5614 5611 5609
5719 5717 5714 5711 5709 5707 5705 5703 5702 5699 5697 5695 5693 5692 5691 5690 5688 5687 5684 5681 5679 5675 5670 5665 5660 5656 5652 5648 5645 5642 5638 5635 5631 5626 5623 5620 5616 5613 5610 5607 5605 5602 5599
5714 5711 5709 5706 5703 5700 5698 5697 5695 5693 5691 5688 5687 5686 5684 5682 5680 5679 5676 5674 5670 5667 5664 5660 5655 5650 5646 5642 5638 5635 5631 5627 5623 5619 5615 5612 5608 5605 5601 5598 5596 5593 5589
5711 5707 5704 5701 5698 5695 5693 5691 5689 5687 5684 5682 5680 5678 5677 5674 5673 5671 5669 5665 5662 5659 5656 5653 5649 5645 5641 5636 5633 5629 5624 5619 5615 5610 5607 5603 5599 5595 5593 5590 5587 5584 5581
5706 5702 5699 5696 5693 5690 5688 5686 5684 5681 5678 5675 5673 5672 5670 5668 5666 5664 5662 5658 5654 5650 5648 5645 5642 5638 5634 5630 5626 5622 5617 5613 5608 5604 5598 5595 5591 5588 5585 5582 5579 5576 5572
5702 5698 5694 5690 5687 5685 5683 5681 5679 5676 5672 5669 5667 5665 5663 5661 5659 5657 5654 5651 5647 5643 5640 5638 5634 5630 5627 5623 5619 5615 5611 5606 5602 5597 5591 5587 5583 5579 5578 5574 5570 5567 5564